Address 0x5485798748221719181499103911646299086586 2

 
Txn Hash
Block
From
To
Value [Txn Fee]
0xea486baa0c7c6cabff3ffebe40b5febeb54f86c98f93186274046e94d2800bca22917232021-10-17 5:02:141 day 1 hr ago0x5485798748221719181499103911646299086586OUT 0x530476d5583724a89c8841eb6da76e7af4c0f17e0 ETH0.001165750973 ETH
0x1cf71b88803a81e3849de043c763208959553caad60a86141b91fe2dac34b32422917082021-10-17 5:02:141 day 1 hr ago0x5485798748221719181499103911646299086586OUT0xda2107a7885a1f47f404688fdde5221de3ede9ef0 ETH0.000831010904 ETH
0x09a31012a11014b5c462eb0faf5fba9aca5be4e0aa11d3a0b02a9cfa80980e3122821402021-10-16 19:40:111 day 10 hrs ago0x5485798748221719181499103911646299086586OUT 0x530476d5583724a89c8841eb6da76e7af4c0f17e0 ETH0.001254614248 ETH
0x918d2662920dd42d626a53343f67f5423b831a6b318caa75086ef62a8ceeaa4e22821322021-10-16 19:40:111 day 10 hrs ago0x5485798748221719181499103911646299086586OUT0xda2107a7885a1f47f404688fdde5221de3ede9ef0 ETH0.000707248069 ETH
0xe866c197a108304490312c6c529f2be0251873b5b392fd3b6693931f12d69bfe22821282021-10-16 19:38:401 day 10 hrs ago0x5485798748221719181499103911646299086586OUT0x832a775b757707487a85d1ccd4382c3e548583710 ETH0.000893055196 ETH
0x1fabbc742828368101314d881b312516feac00b3e831436b5a4c7f2304ae83d922661272021-10-16 5:44:422 days 49 mins ago0x5485798748221719181499103911646299086586OUT 0x530476d5583724a89c8841eb6da76e7af4c0f17e0 ETH0.001410680879 ETH
0xa76d370fedb8e5674de5fb33583398807016e886178369d93835e6159315c21222661162021-10-16 5:43:552 days 50 mins ago0x5485798748221719181499103911646299086586OUT0xda2107a7885a1f47f404688fdde5221de3ede9ef0 ETH0.000795028718 ETH
0x9fab2da98daf533af913360f7a9833fb675c3f3a1571f24573122115abcd0a2a22661082021-10-16 5:43:552 days 50 mins ago0x5485798748221719181499103911646299086586OUT0x832a775b757707487a85d1ccd4382c3e548583710 ETH0.000795019337 ETH
0x34f38a9e971de2eaa66cdee909eb002034687b7f412ea61447958574cc99fae322661042021-10-16 5:43:552 days 50 mins ago0x5485798748221719181499103911646299086586OUT0x7077048a99ca56e9047678b08d36f63acb7a04030 ETH0.00141915899 ETH
0xe0236a3fce7022cc79b30d068c3f7d9a77a3d9a4e4c558527f855d78977cbee822440432021-10-15 10:46:202 days 19 hrs ago0x5485798748221719181499103911646299086586OUT 0x530476d5583724a89c8841eb6da76e7af4c0f17e0 ETH0.001421873518 ETH
0x20d9d1a9dc687240f09ffad4bb490a8db18966ae99a0868e0f9fbeb4ff2ecf0022440322021-10-15 10:46:202 days 19 hrs ago0x5485798748221719181499103911646299086586OUT0xda2107a7885a1f47f404688fdde5221de3ede9ef0 ETH0.001222745914 ETH
0x6eac7bf01c1f9f3d5a8f300ff969ef04c5163223779f7397394b4929a93f974c22440272021-10-15 10:46:202 days 19 hrs ago0x5485798748221719181499103911646299086586OUT0x832a775b757707487a85d1ccd4382c3e548583710 ETH0.001642462962 ETH
0x8ec7cea55dc3d2be03dfecdb8bc2de6ad8f0e6f156c595294d8ebc2b4d4af22d22211602021-10-14 16:50:163 days 13 hrs ago0x5485798748221719181499103911646299086586OUT 0x530476d5583724a89c8841eb6da76e7af4c0f17e0 ETH0.001288039328 ETH
0x8616469325c46b9d099d1b768fc30c68b969ab24ca9926297a81e32792ddf7fe22211422021-10-14 16:50:163 days 13 hrs ago0x5485798748221719181499103911646299086586OUT0x7077048a99ca56e9047678b08d36f63acb7a04030 ETH0.001029838716 ETH
0x343dfd63fe998c05391c06d53bcaa33329f02ad0197be7e2e939d87dde3702d422211402021-10-14 16:49:463 days 13 hrs ago0x5485798748221719181499103911646299086586OUT0xda2107a7885a1f47f404688fdde5221de3ede9ef0 ETH0.001031233412 ETH
0xb94c32f286a1762b580609df748b9812b5bd4b8c245616a230eaf19a44621d7222211362021-10-14 16:49:463 days 13 hrs ago0x5485798748221719181499103911646299086586OUT0x832a775b757707487a85d1ccd4382c3e548583710 ETH0.001035120268 ETH
0x609a7fc0e480bb592ce2a2b52e682d1c35d2f5f9791c0f6205dd03184af3a53f22211322021-10-14 16:49:463 days 13 hrs ago0x5485798748221719181499103911646299086586OUT0xed4de839da369ee4c7077b0358e21d9100506d710 ETH0.000907432282 ETH
0x79fb1980e0989eef8747ef071c50bb64622bb1447cc044afdd976014d970ce8722211242021-10-14 16:49:463 days 13 hrs ago0x5485798748221719181499103911646299086586OUT0x403b1405d8caffc1cc5032cc82aa135d2481d0cf0 ETH0.000910083537 ETH
0x0637cf1f0c2c3cc21e7670f595ceda3c5c36a62f04416acbb46a0f563b19c78122211192021-10-14 16:49:033 days 13 hrs ago0x5485798748221719181499103911646299086586OUT0x82be2ede715f0bad545ab17a2c2194b5457ef4af0 ETH0.000908746954 ETH
0x6e712005a0026ee6c8f396cd82b831e27d72ebf3bd0d8357c23999d1473b93f322211172021-10-14 16:49:033 days 13 hrs ago0x5485798748221719181499103911646299086586OUT0x9e3370c65392a5b08e9758a3162ad03f5ef271b70 ETH0.000862242817 ETH
0x90db71fc5a754701a84afa6e0bc04a2c7c74bfee5d1f2786d75d1155dc57793e22211142021-10-14 16:49:033 days 13 hrs ago0x5485798748221719181499103911646299086586OUT0x37d38849c555e8afb52fe1e868f28a7ef90b744e0 ETH0.000862385716 ETH
0x5d426d9579af81c7d738d5de0c0e585f740cfd3cf721cf2334643a32ee3c186a22211122021-10-14 16:49:033 days 13 hrs ago0x5485798748221719181499103911646299086586OUT0x2327484ec1ca260f9193e79640df94b8c64360fd0 ETH0.001053335143 ETH
0xf07693592e3f6282fb05800e60498e3384eed420f430e25676014ad4b322ad0022030822021-10-14 3:23:074 days 3 hrs ago0x5485798748221719181499103911646299086586OUT 0x530476d5583724a89c8841eb6da76e7af4c0f17e0 ETH0.001253625848 ETH
0xd7a7285f94efc365a1a0ac6fecd4b50edf865fa2598c403680e81fb94fa0902c22030722021-10-14 3:23:074 days 3 hrs ago0x5485798748221719181499103911646299086586OUT0x2327484ec1ca260f9193e79640df94b8c64360fd0 ETH0.000706658405 ETH
0xd5f0e7c228789d44dcc1b35e673d7772d10e019f4c79e6ca4fd7ded47dd9603c22030652021-10-14 3:23:074 days 3 hrs ago0x5485798748221719181499103911646299086586OUT0x9e3370c65392a5b08e9758a3162ad03f5ef271b70 ETH0.000707938331 ETH
[ Download CSV Export 
Parent Txn Hash Block From To Value
Loading

Contract Name:
0 ETH

Compiler Version
0

Optimization Enabled:
0 ETH

Other Settings:
-NA-
Block Transaction Gas Used Reward
Age Block Fee Address BC Fee Address Voting Power Jailed Incoming
Block Uncle Number Difficulty Gas Used Reward
Loading
Loading
Make sure to use the "Vote Down" button for any spammy posts, and the "Vote Up" for interesting conversations.